This is the latest recevied weather packets stored in our database for station/object AC2JK-WX. If no packets are shown the sender has not sent any weather packets the latest 10 day(s).
| Time | Temp. | Humidity | Pressure | Rain* | Wind** | Luminosity | Snow |
|---|---|---|---|---|---|---|---|
| 1777320131 | 26.67° C | 30% | 1019 hPa | 0 mm | - | - | - |
| 1777319830 | 26.11° C | 33% | 1020 hPa | 0 mm | - | - | - |
| 1777319529 | 26.11° C | 30% | 1020 hPa | 0 mm | - | - | - |
| 1777319230 | 26.11° C | 28% | 1020 hPa | 0 mm | - | - | - |
| 1777318930 | 26.11° C | 28% | 1020 hPa | 0 mm | - | - | - |
| 1777318632 | 26.67° C | 28% | 1020 hPa | 0 mm | - | - | - |
| 1777318330 | 26.67° C | 31% | 1020 hPa | 0 mm | - | - | - |
| 1777318033 | 26.67° C | 30% | 1020 hPa | 0 mm | - | - | - |
| 1777317729 | 26.11° C | 27% | 1020 hPa | 0 mm | - | - | - |
| 1777317431 | 26.67° C | 28% | 1020 hPa | 0 mm | - | - | - |
| 1777317130 | 26.11° C | 30% | 1020 hPa | 0 mm | - | - | - |
| 1777316830 | 25.56° C | 28% | 1021 hPa | 0 mm | - | - | - |
| 1777316530 | 25° C | 28% | 1021 hPa | 0 mm | - | - | - |
| 1777316230 | 25.56° C | 28% | 1021 hPa | 0 mm | - | - | - |
| 1777315930 | 25.56° C | 26% | 1021 hPa | 0 mm | - | - | - |
| 1777315632 | 25° C | 30% | 1021 hPa | 0 mm | - | - | - |
| 1777315331 | 25.56° C | 32% | 1021 hPa | 0 mm | - | - | - |
| 1777315030 | 25.56° C | 30% | 1021 hPa | 0 mm | - | - | - |
| 1777314730 | 25.56° C | 33% | 1021 hPa | 0 mm | - | - | - |
| 1777314429 | 25.56° C | 29% | 1021 hPa | 0 mm | - | - | - |
| 1777314130 | 25.56° C | 31% | 1021 hPa | 0 mm | - | - | - |
| 1777313830 | 25.56° C | 27% | 1022 hPa | 0 mm | - | - | - |
| 1777313530 | 25.56° C | 30% | 1021 hPa | 0 mm | - | - | - |
| 1777313230 | 25° C | 31% | 1021 hPa | 0 mm | - | - | - |
| 1777312930 | 25° C | 31% | 1021 hPa | 0 mm | - | - | - |
* Rain latest hour (hover to see other rain measurements)
** Current wind speed in m/s (hover to see current wind gust speed)